Miscellaneous Local Product
Issued by NWS North Platte, NE

Home | Current Version | Previous Version | Text Only | Print | Product List | Glossary On
Versions: 1 2 3 4 5 6 7 8 9 10 11 12 13 14 15 16 17 18 19 20 21 22 23 24 25 26 27 28 29 30 31 32 33 34 35 36 37 38 39 40 41 42 43 44 45 46 47 48 49 50
000
AXUS43 KLBF 061810
MISLBF


WESTERN AND NORTH CENTRAL NEBRASKA HOURLY WEATHER ROUNDUP
NATIONAL WEATHER SERVICE NORTH PLATTE NE
100 PM CDT WED MAY 06 2015

***STATIONS NOT REPORTING VARIABLES SUCH AS SKY/WEATHER OR
PRESSURE ARE PROVIDED BY THE NEBRASKA DEPARTMENT OF
ROADS...RAWS...AND APRS NETWORKS...AND ARE NOT UNDER
NATIONAL WEATHER SERVICE QUALITY CONTROL***

...OBSERVATIONS IN AND NEAR THE EASTERN PANHANDLE OF NEBRASKA...

CITY           SKY/WX    TMP DP  RH WIND       PRES   REMARKS
PINE RIDGE     CLOUDY    63  51  65 S14       29.65F
CHADRON        CLOUDY    61  52  72 CALM      29.65F
ALLIANCE       CLOUDY    58  52  80 SE12      29.65F
SIDNEY         LGT RAIN  56  54  93 E8        29.64F
WHITECLAY        N/A     60  51  70 S10         N/A
CRESCENT LAKE    N/A     58  55  90 SE6         N/A
BIG SPRINGS      N/A     61  56  84 SE12        N/A
$$

...OBSERVATIONS IN NORTH CENTRAL NEBRASKA...

CITY           SKY/WX    TMP DP  RH WIND       PRES   REMARKS
VALENTINE      LGT RAIN  61  58  90 SE22G30   29.66F
THEDFORD       DRIZZLE   62  59  89 S12       29.69F
AINSWORTH      RAIN      61  59  94 S16       29.69S
O`NEILL        DRIZZLE   64  62  93 S14       29.72F
ORD            CLOUDY    66  59  78 S14       29.70F
BROKEN BOW     CLOUDY    67  59  75 S20G25    29.69F
BROWNLEE         N/A     63  59  87 S16         N/A
VALENTINE NWR    N/A     64  60  86 SE12        N/A
SPRINGVIEW       N/A     61  58  91 SE10        N/A
HALSEY           N/A     60  60 100 S7          N/A
BREWSTER         N/A     68  64  88 S14         N/A
ROSE             N/A     63  63  99 E17         N/A
NEWPORT          N/A     64  62  94 S13         N/A
SARGENT          N/A     64  60  88 SE5G14      N/A
COMSTOCK         N/A     72  62  69 S22         N/A
EWING            N/A     63  61  93 S10G20      N/A
$$

...OBSERVATIONS IN SOUTHWEST NEBRASKA AND FAR NORTHEAST COLORADO...

CITY           SKY/WX    TMP DP  RH WIND       PRES   REMARKS
WRAY           CLOUDY    64  51  64 SW13      29.65S
IMPERIAL       CLOUDY    60  52  74 SE15      29.66S
OGALLALA       CLOUDY    63  53  69 SE14G20   29.66S
NORTH PLATTE   LGT RAIN  65  56  72 S10       29.67F
MCCOOK         CLOUDY    63  53  70 S18       29.68S
LEXINGTON      CLOUDY    65  58  78 SE24      29.70S
PAXTON           N/A     62  56  82 SE12        N/A
SUTHERLAND       N/A     59  55  88 SE13        N/A
GOTHENBURG       N/A     65  54  68 SE12        N/A
CALLAWAY         N/A     64  61  90 SE18        N/A
$$

...NORTH PLATTE AREA...

CITY           SKY/WX    TMP DP  RH WIND       PRES   REMARKS
AIRPORT        LGT RAIN  65  56  72 S10       29.67F
$$

...SOME WEATHER OBSERVATIONS FROM AROUND THE REGION...

CITY           SKY/WX    TMP DP  RH WIND       PRES   REMARKS
DENVER         CLOUDY    57  48  72 N6        29.72S
LARAMIE        CLOUDY    52  41  66 N15       29.75F
CHEYENNE       CLOUDY    54  45  71 N16       29.71F
SCOTTSBLUFF    CLOUDY    59  51  75 SE7       29.66S
RAPID CITY     CLOUDY    61  55  81 W5        29.66F
PIERRE         CLOUDY    66  57  72 SE16      29.67F
WINNER         LGT RAIN  65  60  84 SE16      29.68F
SIOUX FALLS    CLOUDY    66  60  81 SE20G29   29.78F
OMAHA          PTSUNNY   71  60  68 S25G33    29.84F
GRAND ISLAND   LGT RAIN  62  59  90 S17G25    29.76F FOG
KANSAS CITY    CLOUDY    67  60  78 S9        29.97F
WICHITA        CLOUDY    66  62  87 SE20      29.83F
HAYS           PTSUNNY   73  57  56 S25G32    29.69F
LIBERAL        FAIR      73  55  53 S24G31    29.73F
GOODLAND       LGT RAIN  58  54  86 S14       29.67F
$$



USA.gov is the U.S. government's official web portal to all federal, state and local government web resources and services.